Location: Lower Kingswood
(51.2667°N, 0.2167°W)
Time: 04:41:17
(UTC+00:00)

Cosmos 883 Rocket - Pass Details

Date: 26 September 2023
Orbit: 950 x 995 km, 83.0° (Epoch: 29 November)

Event Time Altitude Azimuth Distance (km) Brightness Sun altitude
Rises 03:51:00 0° 348° (NNW) 3,701 7.7 -19.4°
Reaches altitude 10° 03:53:31 10° 347° (NNW) 2,755 7.0 -19.0°
Maximum altitude 03:59:50 75° 264° (W) 1,031 4.4 -18.1°
Drops below altitude 10° 04:06:08 10° 180° (S) 2,754 6.7 -17.2°
Sets 04:08:40 0° 179° (S) 3,700 7.3 -16.8°
